| time (UTC) | temp C | wind direction | speed KPH | gust KPH | rain 1hr cm | rain 24hr cm | rain mn cm | humidity % | barometer mb |
| 20260504174601 | 6 | 340 | 9.7 | 27.4 | 0.03 | 1.32 | 0.71 | 91 | 999.8 |
| 20260504173053 | 5 | 25 | 11.3 | 32.2 | 0.03 | 1.32 | 0.71 | 93 | 999.5 |
| 20260504171556 | 5 | 43 | 9.7 | 22.5 | 0.05 | 1.32 | 0.71 | 93 | 999.2 |
| 20260504150103 | 3 | 39 | 8.0 | 19.3 | 0.05 | 1.22 | 0.61 | 98 | 997.1 |
| 20260504090107 | 2 | 295 | 22.5 | 51.5 | 0.08 | 0.84 | 0.23 | 99 | 983.5 |
| 20260504081602 | 2 | 298 | 22.5 | 46.7 | 0.05 | 0.79 | 0.18 | 99 | 981.2 |
| 20260504044603 | 3 | 356 | 6.4 | 16.1 | 0.03 | 0.66 | 0.05 | 97 | 975.5 |
| 20260504043057 | 3 | 325 | 6.4 | 16.1 | 0.03 | 0.64 | 0.03 | 97 | 975.4 |
| 20260504041556 | 3 | 327 | 6.4 | 12.9 | 0.03 | 0.64 | 0.03 | 96 | 975.5 |
| 20260504040107 | 3 | 63 | 1.6 | 6.4 | 0.03 | 0.64 | 0.03 | 95 | 975.7 |
| 20260504034612 | 3 | 91 | 6.4 | 20.9 | 0.03 | 0.64 | 0.03 | 95 | 975.9 |
| 20260504033054 | 4 | 90 | 3.2 | 30.6 | 0.03 | 0.61 | 0.00 | 94 | 976.0 |
| 20260504031550 | 4 | 74 | 1.6 | 16.1 | 0.03 | 0.61 | 0.00 | 94 | 976.3 |
| 20260504030120 | 4 | 139 | 16.1 | 38.6 | 0.03 | 0.61 | 0.00 | 94 | 976.6 |
| 20260504024555 | 5 | 147 | 17.7 | 40.2 | 0.05 | 0.61 | 0.61 | 94 | 977.0 |
| 20260504023055 | 5 | 150 | 16.1 | 40.2 | 0.03 | 0.58 | 0.58 | 94 | 977.5 |
| 20260504021554 | 5 | 89 | 17.7 | 35.4 | 0.03 | 0.58 | 0.58 | 95 | 978.0 |
| 20260504020107 | 5 | 104 | 14.5 | 33.8 | 0.05 | 0.58 | 0.58 | 94 | 978.2 |
| 20260504014556 | 5 | 85 | 14.5 | 43.5 | 0.03 | 0.56 | 0.56 | 94 | 978.5 |
| 20260504013056 | 5 | 170 | 17.7 | 45.1 | 0.05 | 0.56 | 0.56 | 94 | 978.7 |
| 20260504011553 | 5 | 105 | 11.3 | 38.6 | 0.05 | 0.56 | 0.56 | 94 | 979.9 |
| 20260504010052 | 5 | 130 | 14.5 | 38.6 | 0.05 | 0.53 | 0.53 | 94 | 980.5 |
| 20260504004552 | 5 | 139 | 11.3 | 40.2 | 0.05 | 0.53 | 0.53 | 94 | 981.1 |
| 20260504003048 | 5 | 118 | 17.7 | 46.7 | 0.05 | 0.51 | 0.51 | 94 | 981.5 |
| 20260504001606 | 5 | 39 | 16.1 | 41.8 | 0.05 | 0.51 | 0.51 | 94 | 982.9 |
| 20260504000100 | 5 | 62 | 14.5 | 40.2 | 0.05 | 0.48 | 0.48 | 94 | 983.1 |
| 20260503234555 | 5 | 108 | 12.9 | 51.5 | 0.08 | 0.48 | 0.48 | 94 | 983.8 |
| 20260503233100 | 5 | 109 | 14.5 | 46.7 | 0.05 | 0.46 | 0.46 | 94 | 984.4 |
| 20260503231555 | 4 | 236 | 14.5 | 40.2 | 0.08 | 0.46 | 0.46 | 93 | 985.8 |
| 20260503230053 | 4 | 106 | 11.3 | 46.7 | 0.08 | 0.43 | 0.43 | 93 | 986.9 |
| 20260503224554 | 4 | 100 | 16.1 | 49.9 | 0.05 | 0.41 | 0.41 | 93 | 987.8 |
| 20260503223053 | 4 | 147 | 12.9 | 35.4 | 0.08 | 0.41 | 0.41 | 92 | 988.6 |
| 20260503221554 | 4 | 86 | 12.9 | 29.0 | 0.08 | 0.38 | 0.38 | 92 | 990.2 |
| 20260503220055 | 5 | 135 | 8.0 | 24.1 | 0.05 | 0.36 | 0.36 | 93 | 991.3 |
| 20260503214601 | 5 | 128 | 11.3 | 45.1 | 0.08 | 0.36 | 0.36 | 93 | 992.4 |
| 20260503213058 | 5 | 125 | 8.0 | 24.1 | 0.08 | 0.33 | 0.33 | 92 | 993.3 |
| 20260503211556 | 6 | 206 | 6.4 | 25.7 | 0.08 | 0.30 | 0.30 | 92 | 993.9 |
| 20260503210054 | 6 | 56 | 6.4 | 29.0 | 0.10 | 0.30 | 0.30 | 90 | 994.4 |
| 20260503204604 | 6 | 82 | 8.0 | 29.0 | 0.10 | 0.28 | 0.28 | 91 | 994.4 |
| 20260503203058 | 6 | 2 | 4.8 | 24.1 | 0.10 | 0.25 | 0.25 | 91 | 995.2 |
| 20260503201553 | 6 | 95 | 9.7 | 25.7 | 0.10 | 0.23 | 0.23 | 91 | 996.0 |
| 20260503200056 | 6 | 72 | 4.8 | 24.1 | 0.10 | 0.20 | 0.20 | 90 | 996.5 |
| 20260503194555 | 6 | 108 | 4.8 | 32.2 | 0.13 | 0.18 | 0.18 | 88 | 997.4 |
| 20260503193109 | 6 | 11 | 8.0 | 30.6 | 0.13 | 0.15 | 0.15 | 88 | 998.0 |
| 20260503191559 | 6 | 39 | 6.4 | 20.9 | 0.13 | 0.13 | 0.13 | 86 | 998.0 |
| 20260503190106 | 6 | 335 | 8.0 | 30.6 | 0.10 | 0.10 | 0.10 | 86 | 998.9 |
| 20260503184553 | 6 | 108 | 8.0 | 20.9 | 0.05 | 0.05 | 0.05 | 85 | 1000.6 |
| 20260503183100 | 7 | 112 | 3.2 | 11.3 | 0.03 | 0.03 | 0.03 | 80 | 1001.9 |
| 20260503181555 | 7 | 86 | 6.4 | 25.7 | 0.00 | 0.00 | 0.00 | 77 | 1002.5 |
| 20260503180059 | 8 | 35 | 12.9 | 22.5 | 0.00 | 0.00 | 0.00 | 75 | 1003.8 |